• In Hungary
  • List of Countries
  • For 7 days
  • Water Temperature
  • Satellite Maps
  • Weather Map
  • News
  • Weather Widgets
  • user-avatar
    Login

    Hourly Weather Karpovka

    Today, 16 July, Monday

    Time Temperature Precipitation Wind Pressure Humidity
    00:00 +21°C° 0 mm 2 mps 748 mmHg 87%
    01:00 +20°C° 0 mm 2 mps 748 mmHg 88%
    02:00 +20°C° 0 mm 2 mps 748 mmHg 89%
    03:00 +20°C° 0 mm 2 mps 748 mmHg 88%
    04:00 +21°C° 0.3 mm 2 mps 748 mmHg 86%
    05:00 +23°C° 0.3 mm 2 mps 749 mmHg 84%
    06:00 +24°C° 0.3 mm 2 mps 749 mmHg 82%
    07:00 +26°C° 0.3 mm 3 mps 749 mmHg 76%
    08:00 +27°C° 0.3 mm 3 mps 749 mmHg 71%
    09:00 +29°C° 0.3 mm 4 mps 749 mmHg 65%
    10:00 +30°C° 0.1 mm 4 mps 748 mmHg 60%
    11:00 +32°C° 0.1 mm 4 mps 748 mmHg 55%
    12:00 +33°C° 0.1 mm 4 mps 748 mmHg 50%
    13:00 +32°C° 0.2 mm 4 mps 748 mmHg 52%
    14:00 +32°C° 0.2 mm 5 mps 748 mmHg 54%
    15:00 +32°C° 0.2 mm 5 mps 748 mmHg 56%
    16:00 +30°C° 0.2 mm 5 mps 748 mmHg 59%
    17:00 +29°C° 0.2 mm 5 mps 748 mmHg 62%
    18:00 +28°C° 0.2 mm 5 mps 748 mmHg 65%
    19:00 +27°C° 0 mm 5 mps 748 mmHg 65%
    20:00 +26°C° 0 mm 5 mps 748 mmHg 66%
    21:00 +25°C° 0 mm 5 mps 748 mmHg 67%
    22:00 +25°C° 0 mm 4 mps 748 mmHg 69%
    23:00 +23°C° 0 mm 4 mps 748 mmHg 71%

    Tomorrow, 17 July, Tuesday

    Time Temperature Precipitation Wind Pressure Humidity
    00:00 +23°C° 0 mm 4 mps 748 mmHg 74%
    01:00 +22°C° 0.1 mm 4 mps 748 mmHg 75%
    02:00 +22°C° 0.1 mm 4 mps 748 mmHg 76%
    03:00 +22°C° 0.1 mm 4 mps 748 mmHg 77%
    04:00 +21°C° 0.6 mm 4 mps 747 mmHg 80%
    05:00 +21°C° 0.6 mm 5 mps 747 mmHg 82%
    06:00 +20°C° 0.6 mm 5 mps 747 mmHg 85%
    07:00 +21°C° 0.2 mm 6 mps 747 mmHg 81%
    08:00 +22°C° 0.2 mm 6 mps 746 mmHg 78%
    09:00 +23°C° 0.2 mm 7 mps 746 mmHg 74%
    10:00 +24°C° 0.4 mm 7 mps 746 mmHg 72%
    11:00 +26°C° 0.4 mm 8 mps 745 mmHg 69%
    12:00 +27°C° 0.4 mm 8 mps 745 mmHg 66%
    13:00 +26°C° 3.3 mm 7 mps 745 mmHg 73%
    14:00 +24°C° 3.3 mm 6 mps 745 mmHg 79%
    15:00 +23°C° 3.3 mm 5 mps 745 mmHg 86%
    16:00 +25°C° 1.3 mm 5 mps 745 mmHg 84%
    17:00 +25°C° 1.3 mm 5 mps 744 mmHg 82%
    18:00 +25°C° 1.3 mm 5 mps 744 mmHg 81%
    19:00 +25°C° 0.5 mm 5 mps 745 mmHg 82%
    20:00 +23°C° 0.5 mm 4 mps 745 mmHg 83%
    21:00 +22°C° 0.5 mm 4 mps 745 mmHg 84%
    22:00 +21°C° 0 mm 3 mps 745 mmHg 86%
    23:00 +21°C° 0 mm 2 mps 745 mmHg 87%

    Day after tomorrow, 18 July, Wednesday

    Time Temperature Precipitation Wind Pressure Humidity
    00:00 +20°C° 0 mm 2 mps 745 mmHg 88%
    01:00 +21°C° 0 mm 1 mps 745 mmHg 88%
    02:00 +21°C° 0 mm 1 mps 745 mmHg 87%
    03:00 +18°C° 0 mm 0 mps 746 mmHg 87%
    04:00 +22°C° 0 mm 1 mps 746 mmHg 84%
    05:00 +23°C° 0 mm 1 mps 746 mmHg 81%
    06:00 +24°C° 0 mm 1 mps 746 mmHg 79%
    07:00 +25°C° 0.2 mm 2 mps 746 mmHg 73%
    08:00 +27°C° 0.2 mm 2 mps 746 mmHg 67%
    09:00 +28°C° 0.2 mm 2 mps 746 mmHg 61%
    10:00 +29°C° 0.5 mm 2 mps 746 mmHg 58%
    11:00 +30°C° 0.5 mm 3 mps 747 mmHg 55%
    12:00 +30°C° 0.5 mm 3 mps 747 mmHg 52%
    13:00 +30°C° 0.1 mm 2 mps 747 mmHg 53%
    14:00 +30°C° 0.1 mm 2 mps 747 mmHg 54%
    15:00 +30°C° 0.1 mm 2 mps 747 mmHg 55%
    16:00 +30°C° 0 mm 2 mps 747 mmHg 57%
    17:00 +30°C° 0 mm 1 mps 747 mmHg 58%
    18:00 +30°C° 0 mm 1 mps 747 mmHg 60%
    19:00 +28°C° 0 mm 1 mps 747 mmHg 61%
    20:00 +26°C° 0 mm 1 mps 747 mmHg 62%
    21:00 +25°C° 0 mm 1 mps 748 mmHg 64%
    22:00 +24°C° 0 mm 2 mps 748 mmHg 65%
    23:00 +24°C° 0 mm 2 mps 748 mmHg 66%

    19 July, Thursday

    Time Temperature Precipitation Wind Pressure Humidity
    00:00 +23°C° 0 mm 2 mps 748 mmHg 67%
    01:00 +23°C° 0.4 mm 2 mps 748 mmHg 71%
    02:00 +21°C° 0.4 mm 2 mps 748 mmHg 75%
    03:00 +20°C° 0.4 mm 2 mps 748 mmHg 80%
    04:00 +21°C° 0.3 mm 2 mps 748 mmHg 79%
    05:00 +23°C° 0.3 mm 2 mps 748 mmHg 79%
    06:00 +24°C° 0.3 mm 2 mps 748 mmHg 79%
    07:00 +26°C° 0.1 mm 2 mps 748 mmHg 72%
    08:00 +27°C° 0.1 mm 2 mps 749 mmHg 66%
    09:00 +29°C° 0.1 mm 2 mps 749 mmHg 60%
    10:00 +30°C° 0 mm 2 mps 749 mmHg 54%
    11:00 +32°C° 0 mm 2 mps 749 mmHg 49%
    12:00 +34°C° 0 mm 2 mps 749 mmHg 44%
    13:00 +34°C° 0 mm 2 mps 749 mmHg 44%
    14:00 +34°C° 0 mm 2 mps 749 mmHg 45%
    15:00 +33°C° 0 mm 1 mps 749 mmHg 45%
    16:00 +32°C° 0 mm 1 mps 749 mmHg 48%
    17:00 +32°C° 0 mm 1 mps 749 mmHg 51%
    18:00 +31°C° 0 mm 1 mps 749 mmHg 54%
    19:00 +29°C° 0 mm 1 mps 749 mmHg 57%
    20:00 +28°C° 0 mm 1 mps 749 mmHg 60%
    21:00 +26°C° 0 mm 1 mps 749 mmHg 63%
    22:00 +25°C° 0.2 mm 1 mps 749 mmHg 67%
    23:00 +24°C° 0.2 mm 1 mps 750 mmHg 71%

    20 July, Friday

    Time Temperature Precipitation Wind Pressure Humidity
    00:00 +23°C° 0.2 mm 2 mps 750 mmHg 75%
    01:00 +23°C° 0.1 mm 2 mps 750 mmHg 76%
    02:00 +23°C° 0.1 mm 2 mps 750 mmHg 78%
    03:00 +21°C° 0.1 mm 2 mps 750 mmHg 80%
    04:00 +23°C° 0 mm 2 mps 750 mmHg 78%
    05:00 +24°C° 0 mm 1 mps 750 mmHg 76%
    06:00 +25°C° 0 mm 1 mps 750 mmHg 75%
    07:00 +27°C° 0 mm 1 mps 750 mmHg 69%
    08:00 +29°C° 0 mm 1 mps 750 mmHg 63%
    09:00 +30°C° 0 mm 1 mps 750 mmHg 57%
    10:00 +31°C° 0.3 mm 1 mps 750 mmHg 53%
    11:00 +32°C° 0.3 mm 1 mps 750 mmHg 49%
    12:00 +33°C° 0.3 mm 1 mps 750 mmHg 44%
    13:00 +34°C° 0 mm 2 mps 750 mmHg 45%
    14:00 +34°C° 0 mm 2 mps 750 mmHg 46%
    15:00 +34°C° 0 mm 3 mps 750 mmHg 47%
    16:00 +33°C° 0 mm 3 mps 750 mmHg 52%
    17:00 +31°C° 0 mm 3 mps 750 mmHg 58%
    18:00 +30°C° 0 mm 3 mps 750 mmHg 64%
    19:00 +28°C° 0 mm 3 mps 750 mmHg 67%
    20:00 +27°C° 0 mm 3 mps 750 mmHg 71%
    21:00 +25°C° 0 mm 3 mps 749 mmHg 75%
    22:00 +24°C° 0.1 mm 3 mps 750 mmHg 78%
    23:00 +24°C° 0.1 mm 2 mps 750 mmHg 80%

    21 July, Saturday

    Time Temperature Precipitation Wind Pressure Humidity
    00:00 +23°C° 0.1 mm 2 mps 750 mmHg 83%
    01:00 +23°C° 0.6 mm 2 mps 750 mmHg 85%
    02:00 +21°C° 0.6 mm 2 mps 750 mmHg 87%
    03:00 +21°C° 0.6 mm 2 mps 750 mmHg 89%
    04:00 +23°C° 0 mm 2 mps 750 mmHg 88%
    05:00 +23°C° 0 mm 2 mps 750 mmHg 86%
    06:00 +24°C° 0 mm 2 mps 750 mmHg 85%
    07:00 +25°C° 0 mm 2 mps 750 mmHg 79%
    08:00 +27°C° 0 mm 3 mps 750 mmHg 74%
    09:00 +28°C° 0 mm 3 mps 750 mmHg 68%
    10:00 +29°C° 0.4 mm 3 mps 750 mmHg 64%
    11:00 +30°C° 0.4 mm 3 mps 750 mmHg 60%
    12:00 +31°C° 0.4 mm 3 mps 750 mmHg 56%
    13:00 +31°C° 0.1 mm 3 mps 750 mmHg 55%
    14:00 +33°C° 0.1 mm 3 mps 750 mmHg 53%
    15:00 +32°C° 0.1 mm 2 mps 749 mmHg 51%
    16:00 +31°C° 0.2 mm 3 mps 750 mmHg 57%
    17:00 +30°C° 0.2 mm 3 mps 750 mmHg 63%
    18:00 +29°C° 0.2 mm 4 mps 750 mmHg 69%
    19:00 +27°C° 0 mm 4 mps 750 mmHg 71%
    20:00 +26°C° 0 mm 5 mps 750 mmHg 74%
    21:00 +25°C° 0 mm 5 mps 750 mmHg 76%
    22:00 +23°C° 0.2 mm 5 mps 750 mmHg 78%
    23:00 +23°C° 0.2 mm 5 mps 750 mmHg 80%
    Show more